Location: Corralito
(14.1667°N, 87.1833°W)
Time: 00:18:34
(UTC+00:00)

COSMOS 2441 - Pass Details

Date: 07 June 2020
Orbit: 708 x 731 km, 98.0° (Epoch: 11 July)

Event Time Altitude Azimuth Distance (km) Brightness Sun altitude
Rises 09:21:08 0° 8° (N) 3,139 8.3 -26.0°
Reaches altitude 10° 09:23:25 10° 6° (N) 2,215 7.4 -25.6°
Maximum altitude 09:28:16 71° 283° (WNW) 762 4.2 -24.6°
Enters shadow 09:28:19 71° 277° (W) 762 4.2 -24.6°
